x

Portage Canal, Mi (pclm4) Weather Station

3:40am - Tue 6th Dec 2016 All times are CST. -6 hours from GMT.

  • Wind
    7mph, 14mph gusts
  • Air Temp 39°f
  • Sea Pressure 1007.8mb
  • Portage Canal, Mi
  • Portage Canal, Mi

More Historic Weather Station data

Upgrade to MSW Pro to gain access to the past 30 days of data for over 8000 Wavebouys and Weather Stations around the globe.

Join Pro

Comparision Forecast

View Surf forecast
   
Tue 12/06 3:40am 7 14 mph 1007.8mb 39f
3:30am 7 17 mph 1008.1mb 39f
3:20am 6 14 mph 1008.1mb 39f
3:10am 8 16 mph 1008.1mb 39f
3:00am 8 14 mph 1008.5mb 39f
2:40am 8 16 mph 1008.5mb 39f
2:30am 7 17 mph 1008.5mb 39f
2:20am 9 17 mph 1008.8mb 39f
2:10am 5 20 mph 1008.8mb 39f
2:00am 7 22 mph 1008.5mb 39f
1:40am 8 18 mph 1008.5mb 39f
1:30am 10 20 mph 1008.5mb 39f
1:20am 9 21 mph 1008.5mb 38f
1:10am 9 16 mph 1008.5mb 38f
1:00am 8 16 mph 1008.8mb 38f
12:40am 6 18 mph 1008.5mb 38f
12:30am 9 17 mph 1008.5mb 38f
12:20am 8 16 mph 1009.1mb 38f
12:10am 7 15 mph 1009.1mb 38f
12:00am 7 16 mph 1009.5mb 38f
Mon 12/05 11:40pm 8 14 mph 1009.5mb 39f
11:30pm 7 14 mph 1009.8mb 38f
11:20pm 6 16 mph 1009.8mb 37f
11:10pm 7 13 mph 1010.2mb 37f
11:00pm 6 11 mph 1010.5mb 37f
10:40pm 7 14 mph 1010.8mb 36f
10:30pm 6 14 mph 1010.8mb 36f
10:20pm 6 13 mph 1011.2mb 36f
10:10pm 5 11 mph 1011.2mb 36f
10:00pm 5 11 mph 1011.5mb 36f
9:40pm 5 10 mph 1011.5mb 36f
9:30pm 3 11 mph 1011.9mb 37f
9:20pm 5 9 mph 1011.9mb 37f
9:10pm 3 9 mph 1012.2mb 37f
9:00pm 3 9 mph 1012.2mb 37f
8:40pm 3 8 mph 1012.2mb 37f
8:30pm 5 9 mph 1012.5mb 37f
8:20pm 3 10 mph 1012.5mb 36f
8:10pm 2 3 mph 1012.5mb 35f
8:00pm 1 5 mph 1012.2mb 33f
7:40pm 1 6 mph 1012.5mb 33f
7:30pm 3 5 mph 1012.5mb 32f
7:20pm 2 3 mph 1012.5mb 31f
7:10pm 2 3 mph 1012.5mb 31f
7:00pm 1 5 mph 1012.9mb 31f
6:40pm 2 3 mph 1012.5mb 31f
6:30pm 3
mph
1012.2mb 31f
6:20pm 1 5 mph 1012.2mb 31f
6:10pm 5 6 mph 1011.9mb 32f
6:00pm 3 5 mph 1011.9mb 31f
5:40pm 3 5 mph 1011.9mb 32f
5:30pm 3 5 mph 1012.2mb 32f
5:20pm 3 5 mph 1012.2mb 33f
5:10pm 3 5 mph 1011.9mb 33f
5:00pm 3 5 mph 1012.2mb 34f
4:40pm 2 6 mph 1012.2mb 35f
4:30pm 2 5 mph 1012.2mb 35f
4:20pm 1 3 mph 1012.2mb 35f
4:10pm 1 2 mph 1011.9mb 36f
4:00pm 2 3 mph 1011.9mb 36f
3:40pm 3 7 mph 1011.5mb 37f
3:30pm 7 9 mph 1011.5mb 37f
3:20pm 7 10 mph 1011.5mb 37f
3:10pm 5 10 mph 1011.5mb 37f
3:00pm 7 13 mph 1011.2mb 37f
2:40pm 9 14 mph 1010.8mb 38f
2:30pm 11 14 mph 1010.8mb 38f
2:20pm 13 15 mph 1010.8mb 38f
2:10pm 9 13 mph 1010.5mb 38f
2:00pm 9 13 mph 1010.5mb 38f
1:40pm 9 14 mph 1010.8mb 38f
1:30pm 13 15 mph 1010.5mb 38f
1:20pm 10 16 mph 1010.5mb 38f
1:10pm 14 18 mph 1010.8mb 38f
1:00pm 15 17 mph 1010.8mb 38f
12:40pm 13 17 mph 1010.8mb 38f
12:30pm 16 22 mph 1010.8mb 38f
12:20pm 17 21 mph 1010.8mb 38f
12:10pm 15 23 mph 1010.8mb 38f
12:00pm 16 23 mph 1010.8mb 38f
11:40am 17 22 mph 1010.5mb 38f
11:30am 16 20 mph 1010.5mb 38f
11:20am 16 25 mph 1010.5mb 38f
11:10am 15 22 mph 1010.5mb 38f
11:00am 14 22 mph 1010.5mb 38f
10:40am 16 23 mph 1010.2mb 38f
10:30am 18 23 mph 1010.2mb 38f
10:20am 17 24 mph 1010.2mb 38f
10:10am 20 23 mph 1010.2mb 38f
10:00am 16 24 mph 1010.2mb 38f
9:40am 22 25 mph 1009.8mb 38f
9:30am 21 24 mph 1009.8mb 38f
9:20am 17 25 mph 1009.5mb 38f
9:10am 20 26 mph 1009.5mb 38f
9:00am 22 28 mph 1009.5mb 38f
8:40am 21 28 mph 1008.8mb 38f
8:30am 21 26 mph 1008.8mb 38f
8:20am 21 26 mph 1008.8mb 38f
8:10am 22 28 mph 1008.5mb 38f
8:00am 22 26 mph 1008.5mb 37f
7:40am 24 30 mph 1008.1mb 38f
7:36am 25 29 mph 1007.8mb 38f
7:30am 23 26 mph 1007.5mb 38f
7:20am 18 25 mph 1007.5mb 37f
7:10am 23 26 mph 1007.5mb 36f
7:00am 18 24 mph 1007.5mb 36f
6:40am 23 29 mph 1007.5mb 35f
6:30am 22 30 mph 1007.5mb 36f
6:20am 25 30 mph 1007.1mb 36f
6:10am 20 28 mph 1006.8mb 37f
6:00am 23 29 mph 1006.8mb 36f
5:55am 22 29 mph 1006.8mb 37f
5:40am 22 30 mph 1006.4mb 36f
5:30am 24 30 mph 1006.4mb 37f
5:20am 25 34 mph 1006.1mb 37f
5:10am 28 33 mph 1006.1mb 36f
5:00am 26 32 mph 1006.1mb 37f
4:51am 20 31 mph 1005.8mb 38f
4:40am 20 26 mph 1005.8mb 38f
4:30am 11 17 mph 1005.8mb 34f
4:20am 9 15 mph 1005.8mb 33f
4:10am 5 8 mph 1005.8mb 32f
4:00am 7 11 mph 1006.1mb 32f
3:50am 7 11 mph 1005.8mb 32f
3:40am 7 11 mph 1005.8mb 33f
3:30am 8 10 mph 1005.8mb 33f
3:20am 7 13 mph 1005.8mb 33f
3:10am 5 10 mph 1005.8mb 33f
3:00am 5 11 mph 1005.8mb 33f
2:50am 6 11 mph 1005.8mb 33f
2:40am 7 11 mph 1005.8mb 33f
2:30am 5 10 mph 1005.8mb 34f
2:20am 6 13 mph 1005.8mb 33f
2:10am 6 13 mph 1005.8mb 33f
2:00am 6 11 mph 1005.8mb 33f
1:50am 6 11 mph 1005.8mb 33f
1:40am 7 10 mph 1005.8mb 33f
1:30am 8 13 mph 1005.4mb 33f
1:20am 7 11 mph 1005.4mb 33f
1:10am 6 11 mph 1005.4mb 33f
1:00am 6 10 mph 1005.4mb 32f
12:50am 3 8 mph 1005.4mb 32f
12:40am 3 7 mph 1005.8mb 31f
12:30am 3 7 mph 1005.8mb 31f
12:20am 3 7 mph 1005.8mb 31f
12:10am 3 6 mph 1005.8mb 31f
12:00am 2 5 mph 1005.8mb 31f
Sun 12/04 11:50pm 3 7 mph 1006.1mb 31f
11:40pm 3 6 mph 1006.1mb 31f
11:30pm 3 7 mph 1005.8mb 31f
11:20pm 3 8 mph 1005.8mb 31f
11:10pm 2 7 mph 1005.8mb 31f
11:00pm 2 9 mph 1005.8mb 31f
10:50pm 3 7 mph 1006.1mb 31f
10:40pm 3 8 mph 1006.1mb 31f
10:30pm 5 8 mph 1006.1mb 31f
10:20pm 2 9 mph 1006.4mb 31f
10:10pm 5 10 mph 1006.4mb 31f
10:00pm 5 11 mph 1006.4mb 31f
9:50pm 6 9 mph 1006.4mb 31f
9:40pm 6 10 mph 1006.4mb 31f
9:30pm 3 8 mph 1006.4mb 31f
9:20pm 3 9 mph 1006.8mb 31f
9:10pm 3 8 mph 1006.8mb 31f
9:00pm 6 11 mph 1006.8mb 31f
8:50pm 3 9 mph 1007.1mb 31f
8:40pm 5 9 mph 1007.1mb 31f
8:30pm 5 13 mph 1007.1mb 31f
8:20pm 6 13 mph 1007.5mb 31f
8:10pm 6 14 mph 1007.5mb 31f
8:00pm 6 11 mph 1007.8mb 31f
7:50pm 7 15 mph 1007.8mb 31f
7:40pm 6 11 mph 1007.8mb 31f
7:30pm 7 15 mph 1008.1mb 31f
7:20pm 6 17 mph 1008.1mb 31f
7:10pm 9 14 mph 1008.5mb 31f
7:00pm 5 13 mph 1008.5mb 31f
6:50pm 3 13 mph 1008.5mb 31f
6:40pm 3 8 mph 1008.8mb 31f
6:30pm 3 9 mph 1008.8mb 31f
6:20pm 5 9 mph 1009.1mb 31f
6:10pm 6 11 mph 1009.1mb 31f
6:00pm 7 14 mph 1009.5mb 31f
5:50pm 3 11 mph 1009.5mb 31f
5:40pm 5 13 mph 1009.8mb 31f
5:30pm 7 11 mph 1009.8mb 31f
5:20pm 6 13 mph 1010.2mb 31f
5:10pm 5 14 mph 1010.2mb 31f
5:00pm 5 10 mph 1010.2mb 31f
4:50pm 6 10 mph 1010.5mb 31f
4:40pm 5 11 mph 1010.5mb 31f
4:30pm 5 10 mph 1010.5mb 31f
4:20pm 3 10 mph 1010.8mb 31f
4:10pm 3 9 mph 1011.2mb 31f
4:00pm 1 13 mph 1011.2mb 31f
3:50pm 5 10 mph 1011.5mb 31f
3:40pm 5 8 mph 1011.5mb 31f
3:30pm 3 10 mph 1011.9mb 31f
3:20pm 5 9 mph 1011.9mb 31f
3:10pm 5 10 mph 1011.9mb 31f
3:00pm 2 9 mph 1012.2mb 31f
2:50pm 3 10 mph 1012.5mb 31f
2:40pm 3 7 mph 1012.5mb 31f
2:30pm 3 6 mph 1012.5mb 31f
2:20pm 3 8 mph 1012.9mb 31f
2:10pm 1 5 mph 1012.9mb 31f
2:00pm 2 9 mph 1013.2mb 31f
1:50pm 3 11 mph 1013.5mb 31f
1:40pm 5 9 mph 1013.5mb 31f
12:40pm 5 9 mph 1014.6mb 31f
12:30pm 7 11 mph 1014.6mb 31f
12:20pm 3 11 mph 1014.6mb 31f
12:10pm 5 10 mph 1014.9mb 31f
12:00pm 3 11 mph 1015.2mb 31f
11:40am 5 11 mph 1015.6mb 31f
11:30am 6 10 mph 1015.6mb 32f
11:20am 2 14 mph 1015.9mb 31f
11:10am 5 11 mph 1016.3mb 31f
11:00am 5 9 mph 1016.6mb 31f
10:50am 5 13 mph 1016.6mb 31f
10:40am 5 11 mph 1016.9mb 31f
10:30am 5 8 mph 1017.3mb 31f
10:20am 5 10 mph 1017.3mb 31f
10:10am 3 9 mph 1017.3mb 31f
10:00am 5 10 mph 1017.3mb 31f
9:50am 5 14 mph 1017.3mb 31f
9:40am 3 11 mph 1017.3mb 31f
9:30am 2 8 mph 1017.6mb 31f
9:20am 3 7 mph 1017.9mb 31f
9:10am 2 7 mph 1018.3mb 30f
9:00am 3 9 mph 1018.3mb 30f
8:50am 5 8 mph 1018.6mb 30f
8:40am 3 10 mph 1018.6mb 30f
8:30am 5 10 mph 1019mb 30f
8:20am 7 9 mph 1019mb 30f
8:10am 7 10 mph 1019mb 30f
8:00am 3 7 mph 1019.3mb 30f
7:40am 5 8 mph 1019.3mb 30f
7:30am 3 8 mph 1019.3mb 30f
7:20am 1 5 mph 1019.3mb 30f
7:10am  -  3 mph 1019.3mb 30f
7:00am 5 8 mph 1019.3mb 30f
6:50am 2 3 mph 1019.6mb 30f
6:40am 2 6 mph 1019.6mb 30f
6:30am 1 5 mph 1019.6mb 30f
6:20am 3 6 mph 1019.6mb 30f
6:10am 1 5 mph 1019.6mb 30f
6:00am 3 7 mph 1020mb 30f
5:50am 5 6 mph 1020.3mb 30f
5:40am 3 5 mph 1020.3mb 30f
5:30am 3 5 mph 1020.3mb 30f
5:20am 3 5 mph 1020.3mb 30f
5:10am 2 7 mph 1020.7mb 30f
5:00am 3 5 mph 1020.7mb 30f
4:50am 2 5 mph 1021mb 31f
4:40am 3 6 mph 1021mb 31f
4:30am 5 6 mph 1021mb 31f
4:20am 5 7 mph 1021mb 31f
4:10am 2 5 mph 1021.3mb 31f
4:00am 2 3 mph 1021.3mb 31f
3:50am 1 3 mph 1021.7mb 31f
3:40am 2 3 mph 1021.7mb 31f
3:30am  -  2 mph 1021.7mb 31f
3:20am 2 3 mph 1022mb 31f
3:10am 1 2 mph 1022mb 31f
3:00am  -  2 mph 1022mb 31f
2:50am  -  2 mph 1022mb 31f
2:40am  -  2 mph 1022.4mb 31f
2:30am 2 3 mph 1022.4mb 31f
2:20am 2 3 mph 1022.4mb 31f
2:10am 2 3 mph 1022.7mb 31f
2:00am 1 3 mph 1022.4mb 31f
1:50am 1 3 mph 1022.4mb 31f
1:40am 2 3 mph 1022.7mb 31f
1:30am 1 3 mph 1022.7mb 31f
1:20am  -  7 mph 1022.7mb 31f
1:10am 5 7 mph 1023mb 31f
1:00am 2 5 mph 1023mb 31f
12:50am 3 5 mph 1023mb 31f
12:40am 2 5 mph 1023mb 31f
12:30am 3 6 mph 1023mb 32f
12:20am 3 6 mph 1023mb 32f
12:10am 3 7 mph 1023mb 32f
12:00am 3 7 mph 1022.7mb 32f
Sat 12/03 11:50pm 5 7 mph 1023mb 32f
11:40pm 5 7 mph 1023mb 32f
11:30pm 2 6 mph 1023mb 32f
11:20pm 5 8 mph 1023mb 32f
11:10pm 2 3 mph 1023mb 32f
11:00pm 2 3 mph 1023mb 32f
10:50pm  -  2 mph 1023mb 32f
10:40pm  -  2 mph 1023.4mb 32f
10:30pm 2 5 mph 1023.4mb 32f
10:20pm 2 5 mph 1023.4mb 32f
10:10pm 2 5 mph 1023.4mb 32f
10:00pm 2 6 mph 1023.4mb 32f
9:50pm  -  2 mph 1023.4mb 32f
9:40pm  -  2 mph 1023.4mb 32f
9:30pm 2 5 mph 1023.7mb 32f
9:20pm 2 3 mph 1023.4mb 32f
9:10pm 1 6 mph 1023.7mb 33f
9:00pm 3 7 mph 1023.7mb 33f
8:50pm 2 6 mph 1023.7mb 32f
8:40pm 3 5 mph 1024mb 32f
8:30pm 3 6 mph 1024mb 32f
8:20pm 2 5 mph 1024mb 32f
8:10pm 2 7 mph 1024mb 32f
8:00pm 2 6 mph 1024mb 32f
7:50pm 3 6 mph 1024mb 32f
7:40pm 2 6 mph 1024mb 32f
7:30pm 3 7 mph 1024.4mb 33f
7:20pm 5 8 mph 1024.4mb 32f
7:10pm 3 8 mph 1024.4mb 33f
7:00pm 3 7 mph 1024.4mb 33f
6:50pm 3 6 mph 1024.4mb 33f
6:40pm 2 7 mph 1024mb 33f
6:30pm 5 7 mph 1024.4mb 33f
6:20pm 3 6 mph 1024mb 33f
6:10pm 3 9 mph 1024mb 33f
6:00pm 2 5 mph 1024.4mb 33f
5:50pm 2 6 mph 1024.4mb 33f
5:40pm 1 3 mph 1024.4mb 32f
5:30pm 1 6 mph 1024.4mb 32f
5:20pm 3 8 mph 1024.4mb 33f
5:10pm 3 11 mph 1024.4mb 33f
5:00pm 3 7 mph 1024.7mb 33f
4:50pm 3 7 mph 1024.7mb 33f
4:40pm 3 7 mph 1024.7mb 33f
4:30pm 3 7 mph 1024.7mb 33f
4:20pm 2 6 mph 1024.7mb 33f
4:10pm 5 8 mph 1024.7mb 33f
4:00pm 3 7 mph 1024.7mb 33f
3:50pm 5 8 mph 1025.1mb 33f
3:40pm 5 8 mph 1025.1mb 33f
3:30pm 5 9 mph 1025.1mb 33f
3:20pm 8 10 mph 1025.1mb 34f
3:10pm 3 8 mph 1025.1mb 34f
3:00pm 3 8 mph 1025.1mb 34f
2:50pm 7 9 mph 1025.1mb 34f
2:40pm 2 8 mph 1024.7mb 34f
2:30pm 3 6 mph 1024.7mb 35f
2:20pm 5 6 mph 1024.4mb 35f
2:10pm 3 6 mph 1024.4mb 34f
2:00pm 1 6 mph 1024.4mb 34f
1:50pm 3 6 mph 1024.4mb 34f
1:40pm 3 6 mph 1024.4mb 35f
1:30pm 2 5 mph 1024mb 35f
1:20pm 1 5 mph 1024mb 35f
1:10pm 2 6 mph 1024mb 34f
1:00pm 2 6 mph 1024.4mb 35f
12:50pm 3 7 mph 1024.4mb 35f
12:40pm 3 8 mph 1024.4mb 34f
12:30pm 7 9 mph 1024.4mb 35f
12:20pm 3 7 mph 1024.4mb 35f
12:10pm 1 6 mph 1024.4mb 35f
12:00pm 2 6 mph 1024.4mb 35f
11:50am 3 6 mph 1024.7mb 35f
11:40am 1 6 mph 1024.7mb 35f
11:30am 3
mph
1024.7mb 35f
11:20am  -  6 mph 1024.7mb 35f
11:10am 2 3 mph 1024.7mb 35f
11:00am 1 5 mph 1024.7mb 35f
10:50am  -  3 mph 1025.1mb 34f
10:40am 2 3 mph 1025.1mb 34f
10:30am 1 3 mph 1025.1mb 34f
10:20am 2 5 mph 1025.4mb 34f
10:10am 2 3 mph 1025.4mb 34f
10:00am  -  2 mph 1025.4mb 33f
9:50am  -  2 mph 1025.4mb 33f
9:40am  -  2 mph 1025.4mb 33f
9:30am  -  2 mph 1025.4mb 33f
9:20am  -  1 mph 1025.4mb 33f
9:10am  -  mph 1025.4mb 33f
9:00am  -  mph 1025.4mb 32f
8:50am  -  mph 1025.4mb 32f
8:40am  -  3 mph 1025.4mb 32f
8:30am 2 3 mph 1025.4mb 32f
8:20am  -  3 mph 1025.4mb 32f
8:10am  -  2 mph 1025.4mb 32f
8:00am  -  2 mph 1025.4mb 32f
7:50am  -  2 mph 1025.4mb 31f
7:40am  -  3 mph 1025.4mb 32f
7:30am 1 3 mph 1025.1mb 32f
7:20am 2 3 mph 1025.1mb 32f
7:10am 1 2 mph 1025.1mb 32f
7:00am 2
mph
1025.1mb 31f
6:50am 1 3 mph 1025.1mb 31f
6:40am 1 2 mph 1025.1mb 31f
6:30am 2
mph
1024.7mb 31f
6:20am 1 2 mph 1024.7mb 31f
6:10am 2
mph
1024.7mb 31f
6:00am  -  3 mph 1024.7mb 31f
5:50am 1 2 mph 1024.7mb 31f
5:40am 1 3 mph 1024.7mb 31f
5:30am 2
mph
1024.7mb 31f
5:20am  -  2 mph 1024.4mb 31f
5:10am 1 2 mph 1024.4mb 31f
5:00am 1 2 mph 1024.7mb 31f
4:50am 1 3 mph 1024.7mb 32f
4:40am 2 3 mph 1024.7mb 31f
4:30am 2 3 mph 1024.7mb 31f
4:20am 1 5 mph 1024.7mb 31f
4:10am 1 5 mph 1024.7mb 31f
4:00am 2 5 mph 1024.7mb 31f
3:50am 2 5 mph 1024.7mb 31f
3:40am 2 5 mph 1024.7mb 31f
3:30am 1 3 mph 1024.7mb 31f
3:20am 2 3 mph 1024.7mb 32f
3:10am 2 3 mph 1024.7mb 32f
3:00am 2 5 mph 1024.7mb 32f
2:50am 3 5 mph 1024.7mb 32f
2:40am  -  3 mph 1025.1mb 33f
2:30am 2 5 mph 1024.7mb 33f
2:20am 3 9 mph 1024.7mb 34f
2:10am 5 9 mph 1024.7mb 34f
2:00am 6 10 mph 1024.4mb 34f
1:50am 8 9 mph 1024.4mb 35f
1:40am 9 11 mph 1024.4mb 35f
1:30am 7 11 mph 1024.4mb 35f
1:20am 7 9 mph 1024.4mb 35f
1:10am 7 11 mph 1024.4mb 35f
1:00am 8 11 mph 1024mb 35f
12:50am 8 13 mph 1024mb 35f
12:40am 8 11 mph 1024mb 35f
12:30am 7 10 mph 1024mb 35f
12:20am 8 10 mph 1024mb 35f
12:10am 7 10 mph 1024mb 35f
12:00am 8 10 mph 1024mb 35f
Fri 12/02 11:50pm 7 10 mph 1024mb 35f
11:40pm 8 10 mph 1024mb 35f
11:30pm 7 9 mph 1024mb 35f
11:20pm 7 9 mph 1024mb 35f
11:10pm 9
mph
1024mb 35f
11:00pm 8 11 mph 1024mb 35f
10:50pm 7 10 mph 1024mb 35f
10:40pm 8 9 mph 1024mb 35f
10:30pm 7 9 mph 1024mb 35f
10:20pm 6 9 mph 1024mb 35f
10:10pm 7 9 mph 1024mb 35f
10:00pm 6 9 mph 1024mb 35f
9:50pm 7 8 mph 1024mb 35f
9:40pm 6 9 mph 1024mb 35f
9:30pm 7 10 mph 1024mb 35f
9:20pm 7 13 mph 1024mb 35f
9:10pm 9 13 mph 1024mb 35f
9:00pm 9 13 mph 1024mb 35f
8:50pm 10 13 mph 1024mb 35f
8:40pm 9 11 mph 1024mb 35f
8:30pm 10 14 mph 1024mb 35f
8:20pm 11 15 mph 1023.7mb 35f
8:10pm 11 16 mph 1023.7mb 35f
8:00pm 10 13 mph 1023.7mb 35f
7:50pm 10 15 mph 1023.7mb 35f
7:40pm 10 14 mph 1023.7mb 35f
7:30pm 10 13 mph 1023.7mb 35f
7:20pm 13 15 mph 1023.4mb 35f
7:10pm 11 15 mph 1023.7mb 35f
7:00pm 11 14 mph 1023.4mb 35f
6:50pm 11 15 mph 1023.4mb 35f
6:40pm 13 16 mph 1023.4mb 35f
6:30pm 14 16 mph 1023.4mb 35f
6:20pm 14 16 mph 1023.4mb 35f
6:10pm 11 14 mph 1023mb 35f
6:00pm 11 14 mph 1023mb 35f
5:50pm 13 14 mph 1023mb 35f
5:40pm 11 14 mph 1023mb 35f
5:30pm 11 14 mph 1023mb 35f
5:20pm 13 15 mph 1023mb 35f
5:10pm 11 13 mph 1023mb 35f
5:00pm 9 15 mph 1022.7mb 35f
4:50pm 10 14 mph 1023mb 35f
4:40pm 11 14 mph 1022.7mb 35f
4:30pm 11 14 mph 1022.7mb 35f
4:20pm 10 13 mph 1022.7mb 35f
4:10pm 10 13 mph 1022.7mb 35f
4:00pm 11 13 mph 1022.7mb 35f
3:50pm 10 11 mph 1022.4mb 35f
3:40pm 9 11 mph 1022.4mb 35f
3:30pm 10 13 mph 1022.4mb 35f
3:20pm 9 13 mph 1022.4mb 35f
3:10pm 10 13 mph 1022.4mb 35f
3:00pm 9 11 mph 1022.4mb 35f
2:50pm 10 13 mph 1022mb 35f
2:40pm 10 14 mph 1022mb 35f
2:30pm 10 13 mph 1022mb 35f
2:20pm 9 13 mph 1021.7mb 35f
2:10pm 8 11 mph 1021.7mb 35f
2:00pm 10 13 mph 1021.7mb 35f
1:50pm 9 13 mph 1021.3mb 35f
1:40pm 10 11 mph 1021.3mb 35f
1:30pm 10 11 mph 1021mb 35f
1:20pm 9 11 mph 1021mb 34f
1:10pm 9 13 mph 1021mb 34f
1:00pm 10 14 mph 1021mb 34f
12:50pm 11 14 mph 1021mb 34f
12:40pm 11 14 mph 1021mb 34f
12:30pm 10 14 mph 1020.7mb 34f
12:20pm 11 14 mph 1020.7mb 34f
12:10pm 10 13 mph 1020.7mb 34f
12:00pm 9 14 mph 1020.7mb 34f
11:50am 11 14 mph 1020.7mb 34f
11:40am 10 15 mph 1020.3mb 34f
11:30am 11 16 mph 1020.7mb 34f
11:20am 14 15 mph 1020.7mb 34f
11:10am 11 15 mph 1020.7mb 34f
11:00am 11 14 mph 1020.3mb 34f
10:50am 11 15 mph 1020.3mb 34f